Hourly Data Report for July 29, 2021

CARIBOU POINT (AUT)
NOVA SCOTIA
Current Station Operator: ECCC - MSC

45°46'00.000" N
62°41'00.000" W
2.40 m
8200774
71415
WBK

Download Data

Hourly Data (July 2021)
Hourly Data Report for July 29, 2021
TIME
LST
Temp Definition
°C
Dew Point Definition
°C
Rel Hum Definition
%
Precip. Amount Definition
mm

Wind Dir Definition
10's deg

Wind Spd Definition
km/h
Visibility Definition
km
Stn Press Definition
kPa
Hmdx Definition


Wind Chill Definition


Weather Definition


00:00 15.8 14.5 92 0.0 24 4   101.21     LegendNANA
01:00 15.0 13.6 91 0.0 23 7   101.16     LegendNANA
02:00 14.5 13.4 93 0.0 23 9   101.16     LegendNANA
03:00 14.4 12.8 90 0.0 23 7   101.19     LegendNANA
04:00 14.0 11.1 83 0.0 25 13   101.19     LegendNANA
05:00 13.2 10.9 86 0.0 26 13   101.22     LegendNANA
06:00 14.1 10.6 79 0.0 26 12   101.26     LegendNANA
07:00 15.7 11.5 76 0.0 27 12   101.30     LegendNANA
08:00 17.6 12.5 72 0.0 28 16   101.35     LegendNANA
09:00 18.6 12.4 67 0.0 29 21   101.38     LegendNANA
10:00 19.3 11.1 59 0.0 30 23   101.39     LegendNANA
11:00 19.8 12.3 62 0.0 30 23   101.39     LegendNANA
12:00 20.8 12.9 61 0.0 29 22   101.37     LegendNANA
13:00 21.3 14.1 63 0.0 31 13   101.32 25   LegendNANA
14:00 20.7 13.8 65 0.0 33 9   101.29     LegendNANA
15:00 20.5 14.0 66 0.0 34 8   101.24     LegendNANA
16:00 20.4 14.4 68 0.0 7 3   101.24     LegendNANA
17:00 20.2 14.4 69 0.0 9 4   101.23     LegendNANA
18:00 21.7 7.8 41 0.0 22 8   101.24     LegendNANA
19:00 20.5 10.2 52 0.0 22 6   101.20     LegendNANA
20:00 19.1 11.3 61 0.0 23 6   101.20     LegendNANA
21:00 18.5 12.1 66 0.0 20 8   101.23     LegendNANA
22:00 17.6 10.8 65 0.0 21 5   101.24     LegendNANA
23:00 16.7 10.8 68 0.0 20 9   101.22     LegendNANA

Notes on Data Quality.

Legend

  • E = Estimated
  • M = Missing
  • NA = Not Available*
  • [empty] = Indicates an unobserved value
Date modified: